Regional Weather Roundup
Issued by NWS

Home | Current Version | Previous Version | Graphics & Text | Print | Product List | Glossary On
Versions: 1 2 3 4 5 6 7 8 9 10 11 12 13 14 15 16 17 18 19 20 21 22 23 24 25 26 27 28 29 30 31 32 33 34 35 36 37 38 39 40 41 42 43 44 45 46 47 48 49 50
000
ASUS43 KFSD 062202
RWRSD

WEATHER ROUNDUP FOR SOUTH DAKOTA
NATIONAL WEATHER SERVICE SIOUX FALLS SD
400 PM CST SAT FEB 06 2016

NOTE: "FAIR" INDICATES FEW OR NO CLOUDS BELOW 12,000 FEET WITH NO
SIGNIFICANT WEATHER AND/OR OBSTRUCTIONS TO VISIBILITY.


SDZ001>005-009-010-012>017-062300-
NORTHWEST AND NORTH CENTRAL SOUTH DAKOTA

CITY           SKY/WX    TMP DP  RH WIND       PRES   REMARKS
BUFFALO          N/A     42  32  67 NW40G51   29.83R
FAITH            N/A     50  26  39 W10       29.78F
$$

SDZ012>016-024>037-041>051-057-063-072>074-062300-
SOUTHWEST AND SOUTH CENTRAL SOUTH DAKOTA

CITY           SKY/WX    TMP DP  RH WIND       PRES   REMARKS
RAPID CTY ARPT CLOUDY    50  34  54 NE6       29.83F
PIERRE         CLOUDY    49  29  46 W15       29.79S
CUSTER         CLOUDY    38  20  48 W21G39    29.88F
ELLSWORTH AFB  CLOUDY    54  27  35 NW10      29.85R
PHILIP         CLOUDY    47  30  51 SW15      29.83F
PINE RIDGE     CLOUDY    46  26  45 W12       29.93S
WINNER         FAIR      45  30  55 SW10      29.86R
$$

SDZ004>011-016>023-039-040-062300-
NORTHEAST SOUTH DAKOTA

CITY           SKY/WX    TMP DP  RH WIND       PRES   REMARKS
ABERDEEN       CLOUDY    42  31  64 S15       29.77S
WATERTOWN      CLOUDY    36  27  69 S12       29.78F
BROOKINGS      CLOUDY    35  28  75 S13       29.84F WCI  26
SISSETON         N/A     38  30  73 VRB7      29.74
$$

SDZ017-020-022-023-036>040-048>070-062300-
SOUTHEAST SOUTH DAKOTA

CITY           SKY/WX    TMP DP  RH WIND       PRES   REMARKS
SIOUX FALLS    CLOUDY    35  25  66 SW13      29.90F WCI  26
HURON          CLOUDY    39  31  72 S14       29.81F
MITCHELL       MOSUNNY   42  33  70 S12       29.85F
YANKTON        CLOUDY    39  25  56 SW13      29.91F
$$

ABBREVIATIONS USED IN REMARKS
   TC - TEMPERATURE IN CELSIUS
  WCI - WIND CHILL INDEX
   HX - HEAT INDEX
  VSB - VISIBILITY




USA.gov is the U.S. government's official web portal to all federal, state and local government web resources and services.